This demonstration page uses our WeatherBlox Daily Observations layout. Learn more.

Left ArrowRight Arrow

40.92945, -100.16068

Hourly Observations for July 26, 2019

Temp ( °F °C ) Dew Point ( °F °C ) Humidity (%) Winds ( mph kmh ) Pressure ( in mb ) Visibility ( mi km ) Precip ( " mm )
12:15 am 00:15 Clear 71 21.5 61 16 71 71 S 6 9 29.92 1013 10 16 N/A
12:35 am 00:35 Clear 70 21.2 60 15.6 71 71 S 6 9 29.92 1013 10 16 N/A
12:55 am 00:55 Clear 71 21.5 60 15.5 69 69 S 7 11 29.92 1013 10 16 N/A
1:15 am 01:15 Clear 71 21.6 60 15.5 68 68 S 9 15 29.91 1013 10 16 N/A
1:35 am 01:35 Clear 71 21.5 59 15.1 67 67 S 9 15 29.91 1013 10 16 N/A
2:35 am 02:35 Clear 68 20.2 59 14.8 71 71 S 6 9 29.93 1014 10 16 N/A
2:55 am 02:55 Clear 68 20 58 14.7 72 72 S 6 9 29.93 1014 10 16 N/A
3:15 am 03:15 Clear 67 19.7 58 14.6 73 73 SSE 3 6 29.93 1014 10 16 N/A
3:35 am 03:35 Clear 67 19.3 58 14.7 75 75 SE 3 6 29.94 1014 10 16 N/A
3:55 am 03:55 Clear 67 19.3 58 14.6 74 74 SSE 6 9 29.93 1013 10 16 N/A
4:15 am 04:15 Clear 66 19 58 14.7 76 76 SSE 9 15 29.93 1014 10 16 N/A
4:35 am 04:35 Clear 65 18.6 58 14.7 78 78 SSE 6 9 29.94 1014 10 16 N/A
4:55 am 04:55 Clear 67 19.2 58 14.5 74 74 SSE 7 11 29.94 1014 10 16 N/A
5:35 am 05:35 Clear 64 17.9 58 14.6 81 81 S 7 11 29.95 1014 10 16 N/A
5:55 am 05:55 Clear 63 17.3 58 14.5 84 84 S 6 9 29.96 1014 10 16 N/A
6:15 am 06:15 Clear 63 17.3 58 14.5 84 84 S 6 9 29.96 1014 10 16 N/A
6:35 am 06:35 Sunny 64 17.6 58 14.5 82 82 S 5 7 29.96 1015 10 16 N/A
6:55 am 06:55 Sunny 64 17.8 58 14.6 82 82 S 6 9 29.96 1015 10 16 N/A
7:15 am 07:15 Sunny 65 18.2 59 15.2 83 83 S 5 7 29.96 1014 10 16 N/A
7:35 am 07:35 Sunny 66 19 61 15.9 82 82 S 3 6 29.95 1014 10 16 N/A
7:55 am 07:55 Sunny 68 20.1 62 16.5 80 80 S 5 7 29.94 1014 10 16 N/A
8:15 am 08:15 Sunny 70 21.1 63 17.1 78 78 S 5 7 29.94 1014 10 16 N/A
8:35 am 08:35 Sunny 72 22.1 63 17.3 74 74 SSW 8 13 29.93 1014 10 16 N/A
8:55 am 08:55 Sunny 72 22.4 63 17.3 73 73 SSW 7 11 29.93 1014 10 16 N/A
9:15 am 09:15 Sunny 73 23 64 18 74 74 SW 6 9 29.93 1013 10 16 N/A
9:35 am 09:35 Sunny 74 23.5 65 18.3 73 73 SSW 6 9 29.93 1014 10 16 N/A
9:55 am 09:55 Sunny 76 24.2 66 18.7 71 71 S 3 6 29.93 1013 10 16 N/A
10:15 am 10:15 Sunny 77 24.8 67 19.2 71 71 S 5 7 29.92 1013 10 16 N/A
10:35 am 10:35 Sunny 77 25 67 19.3 71 71 SSW 6 9 29.93 1014 10 16 N/A
10:55 am 10:55 Sunny 78 25.6 68 20.1 72 72 S 6 9 29.92 1013 10 16 N/A
11:15 am 11:15 Sunny 79 25.9 68 20.1 70 70 SSW 6 9 29.92 1013 10 16 N/A
11:35 am 11:35 Sunny 80 26.4 69 20.4 70 70 S 6 9 29.93 1013 10 16 N/A
11:55 am 11:55 Sunny 80 26.5 69 20.5 70 70 ESE 3 6 29.93 1013 10 16 N/A
12:35 pm 12:35 Sunny 82 27.5 69 20.7 66 66 S 5 7 29.92 1013 10 16 N/A
12:55 pm 12:55 Sunny 82 27.7 69 20.7 66 66 SSE 7 11 29.92 1013 10 16 N/A
1:15 pm 13:15 Sunny 83 28.1 70 21.2 66 66 S 6 9 29.91 1013 10 16 N/A
1:35 pm 13:35 Sunny 83 28.5 70 21.2 65 65 SSE 9 15 29.91 1013 10 16 N/A
1:55 pm 13:55 Sunny 84 29.1 71 21.6 64 64 S 9 15 29.90 1012 10 16 N/A
2:15 pm 14:15 Sunny 85 29.5 72 22.2 65 65 S 8 13 29.89 1012 10 16 N/A
2:35 pm 14:35 Sunny 86 30.1 72 22.1 62 62 SSE 8 13 29.89 1012 10 16 N/A
2:55 pm 14:55 Sunny 86 30.1 72 22 62 62 SE 12 19 29.89 1012 10 16 N/A
3:15 pm 15:15 Sunny 86 29.9 71 21.6 61 61 SSE 12 19 29.89 1012 10 16 N/A
3:35 pm 15:35 Sunny 86 30.2 71 21.6 60 60 SSE 14 22 29.88 1012 10 16 N/A
3:55 pm 15:55 Sunny 86 30.1 71 21.8 61 61 SSE 10 17 29.88 1012 10 16 N/A
4:15 pm 16:15 Sunny 86 30.2 70 21.3 59 59 SSE 10 17 29.88 1012 10 16 N/A
4:35 pm 16:35 Sunny 86 30.1 70 21.2 59 59 SE 10 17 29.88 1012 10 16 N/A
4:55 pm 16:55 Sunny 85 29.5 69 20.7 59 59 SSE 9 15 29.87 1012 10 16 N/A
5:15 pm 17:15 Sunny 85 29.3 70 21.1 61 61 SSE 9 15 29.87 1012 10 16 N/A
5:35 pm 17:35 Sunny 84 29 70 21.1 62 62 SSE 8 13 29.88 1012 10 16 N/A
5:55 pm 17:55 Sunny 84 28.7 69 20.7 62 62 SE 9 15 29.87 1011 10 16 N/A
6:15 pm 18:15 Sunny 83 28.6 68 20.2 60 60 SE 10 17 29.87 1012 10 16 N/A
6:35 pm 18:35 Sunny 82 28 69 20.4 63 63 SE 9 15 29.88 1012 10 16 N/A
6:55 pm 18:55 Sunny 82 27.9 69 20.6 65 65 SE 8 13 29.88 1012 10 16 N/A
7:15 pm 19:15 Sunny 82 27.8 68 20 63 63 SE 9 15 29.88 1012 10 16 N/A
7:35 pm 19:35 Sunny 82 27.7 68 20 63 63 ESE 8 13 29.88 1012 10 16 N/A
7:55 pm 19:55 Sunny 82 27.9 69 20.5 64 64 ESE 9 15 29.87 1011 10 16 N/A
8:15 pm 20:15 Sunny 81 27.1 69 20.8 69 69 SE 9 15 29.87 1012 10 16 N/A
8:35 pm 20:35 Sunny 80 26.7 69 20.5 69 69 SE 9 15 29.89 1012 10 16 N/A
8:55 pm 20:55 Sunny 79 25.9 68 19.9 70 70 SE 7 11 29.91 1013 10 16 N/A
9:15 pm 21:15 Clear 77 24.9 67 19.6 72 72 SE 6 9 29.93 1014 10 16 N/A
9:35 pm 21:35 Clear 75 24 67 19.5 76 76 SE 6 9 29.95 1014 10 16 N/A
9:55 pm 21:55 Clear 75 23.7 66 19 75 75 SE 7 11 29.96 1015 10 16 N/A
10:15 pm 22:15 Clear 76 24.2 65 18.1 69 69 SE 7 11 29.95 1014 10 16 N/A
10:35 pm 22:35 Clear 74 23.5 64 17.7 70 70 SE 7 11 29.95 1014 10 16 N/A
10:55 pm 22:55 Clear 74 23.6 63 17.3 68 68 SE 7 11 29.95 1014 10 16 N/A
11:15 pm 23:15 Clear 73 22.6 64 17.5 73 73 ESE 7 11 29.97 1015 10 16 N/A
11:35 pm 23:35 Clear 73 22.9 63 17.2 70 70 ESE 7 11 29.97 1015 10 16 N/A
11:55 pm 23:55 Clear 73 22.8 63 17.1 70 70 SSE 9 15 29.97 1015 10 16 N/A

Powered by AerisWeather